[[{"header":{"parameterUnit":"m.s-1","parameterCategory":1,"la1":30.2991,"la2":30.254,"lo1":-89.0895,"lo2":-89.0444,"dy":0.0017,"dx":0.0017,"nx":28,"ny":28,"refTime":"2024-06-03T21:00:00:Z","depth":0,"parameterNumber":2,"parameterNumberName":"U-component_of_WINDS"},"data":[0,0,0,0,0,0,0,0,0,0,0,0,0,0,0,0,0,0,0,0,0,0,0,0,0,0,0,0,0,0,0,0,0,0,0,0,0,0,0,0,0,0,0,0,0,0,0,0,0,0,0,0,0,0,0,0,0,0,-1.2617,-1.2618,0,-1.2731,-1.2733,-1.2734,-1.2781,-1.278,-1.278,-1.278,-1.2898,-1.2901,-1.2905,0,0,0,0,0,0,0,0,0,0,0,0,0,-1.244,-1.2443,-1.2617,-1.2618,-1.262,-1.2731,-1.2733,-1.2734,-1.2781,-1.278,-1.278,-1.278,-1.2897,-1.2901,-1.2905,0,0,0,0,0,0,0,0,0,0,0,0,0,-1.2532,-1.2444,-1.2616,-1.2656,-1.2661,-1.2731,-1.2733,-1.2735,-1.2781,-1.278,-1.278,-1.278,-1.2895,-1.29,-1.2905,-1.2944,0,0,-1.2921,-1.2923,0,0,0,0,0,0,0,0,-1.2527,-1.2538,-1.2649,-1.2654,-1.2659,-1.2741,-1.2714,-1.2805,-1.2781,-1.2735,-1.278,-1.2779,-1.2846,-1.2855,-1.2878,-1.295,-1.2955,-1.2921,-1.2924,-1.2927,-1.2928,0,0,0,0,0,0,0,-1.252,-1.2534,-1.2662,-1.265,-1.2657,-1.2669,-1.2681,-1.2731,-1.2791,-1.2739,-1.2743,-1.2756,-1.2849,-1.2873,-1.2881,-1.2957,-1.2921,-1.2926,-1.2929,-1.2931,-1.3068,-1.3069,0,0,0,0,0,0,-1.2507,-1.2528,-1.2658,-1.2666,-1.259,-1.2672,-1.2686,-1.2715,-1.2791,-1.2802,-1.2756,-1.2757,-1.2864,-1.2875,-1.2885,-1.2936,-1.2927,-1.2931,-1.2934,-1.3068,-1.3068,-1.3069,0,0,0,0,0,0,-1.2503,-1.2518,-1.2654,-1.2598,-1.2616,-1.2676,-1.2708,-1.2718,-1.2741,-1.2804,-1.2815,-1.2769,-1.2864,-1.2878,-1.293,-1.2941,-1.2934,-1.2938,-1.3067,-1.3068,-1.3069,-1.3039,0,0,0,0,0,0,-1.2498,-1.2517,-1.2532,-1.2598,-1.2619,-1.2696,-1.2708,-1.272,-1.275,-1.2753,-1.2819,-1.2829,-1.2865,-1.2922,-1.2935,-1.2948,-1.2942,-1.3066,-1.3067,-1.3068,-1.3039,-1.3039,-1.3038,0,0,0,0,0,-1.2491,-1.2519,-1.2532,-1.2548,-1.2639,-1.2696,-1.2708,-1.2748,-1.2751,-1.2767,-1.2807,-1.2827,-1.2938,-1.2927,-1.2942,-1.2957,-1.3066,-1.3067,-1.3068,-1.3039,-1.3039,-1.3038,0,0,0,0,0,0,-1.2452,-1.2528,-1.2544,-1.2593,-1.2638,-1.2704,-1.2725,-1.2746,-1.2792,-1.2793,-1.2841,-1.2855,-1.2903,-1.2935,-1.2921,-1.2999,-1.3003,-1.3008,-1.2976,-1.2976,-1.2976,-1.2967,-1.2946,0,0,0,0,0,-1.2449,-1.2489,-1.2554,-1.2591,-1.2613,-1.2665,-1.2692,-1.2719,-1.2767,-1.2786,-1.283,-1.2877,-1.2922,-1.2951,-1.2996,-1.3044,-1.306,-1.3062,-1.3061,-1.3061,-1.3064,-1.3093,-1.3095,-1.3074,-1.3074,-1.3074,0,0,-1.2444,-1.249,-1.2512,-1.2584,-1.2622,-1.2663,-1.2681,-1.2723,-1.2754,-1.2793,-1.2844,-1.2878,-1.2934,-1.2984,-1.3008,-1.3012,-1.3073,-1.3063,-1.3062,-1.3065,-1.3094,-1.3096,-1.3098,-1.3075,-1.3074,-1.3074,0,0,-1.2455,-1.2493,-1.2529,-1.2567,-1.2624,-1.2659,-1.2667,-1.2731,-1.2755,-1.2807,-1.2837,-1.2875,-1.2952,-1.2991,-1.302,-1.3046,-1.3067,-1.306,-1.3057,-1.3085,-1.3086,-1.3088,-1.3098,-1.3101,-1.3063,-1.3063,-1.3063,0,-1.244,-1.2503,-1.2545,-1.2586,-1.2617,-1.2654,-1.2691,-1.2726,-1.2795,-1.2815,-1.2819,-1.2917,-1.2957,-1.3016,-1.3023,-1.3045,-1.3057,-1.3052,-1.3083,-1.3085,-1.3087,-1.3097,-1.31,-1.3061,-1.3062,-1.3062,-1.3062,0,-1.2483,-1.2526,-1.2548,-1.2613,-1.2647,-1.2686,-1.2734,-1.2763,-1.2788,-1.2822,-1.2876,-1.2925,-1.2981,-1.2997,-1.3021,-1.3061,-1.3062,-1.3073,-1.3079,-1.3087,-1.3097,-1.3101,-1.306,-1.306,-1.306,-1.3061,0,0,-1.2472,-1.2561,-1.2568,-1.2598,-1.2665,-1.2699,-1.274,-1.2794,-1.2819,-1.2865,-1.2901,-1.2966,-1.2977,-1.3011,-1.304,-1.3063,-1.3082,-1.3072,-1.3074,-1.3073,-1.3129,-1.312,-1.3124,-1.3096,-1.3097,-1.3098,-1.3125,0,-1.2492,-1.2566,-1.2605,-1.2663,-1.2703,-1.274,-1.2775,-1.282,-1.2854,-1.2893,-1.2931,-1.2976,-1.2987,-1.3008,-1.3033,-1.3074,-1.3094,-1.3073,-1.313,-1.3132,-1.3115,-1.3129,-1.3119,-1.3142,-1.3129,-1.3129,-1.313,0,-1.2525,-1.2571,-1.2632,-1.2694,-1.2713,-1.2744,-1.2798,-1.2835,-1.2887,-1.291,-1.2947,-1.2976,-1.3021,-1.3024,-1.3087,-1.3072,-1.3098,-1.3121,-1.3123,-1.313,-1.3131,-1.3136,-1.315,-1.3154,-1.3137,-1.3136,-1.3136,0,-1.2511,-1.2588,-1.2635,-1.266,-1.2734,-1.2755,-1.2786,-1.2838,-1.2869,-1.2916,-1.2936,-1.2988,-1.3016,-1.3056,-1.3098,-1.3096,-1.3158,-1.3163,-1.3179,-1.3177,-1.319,-1.3188,-1.3208,-1.3206,-1.3206,-1.3206,-1.3206,0,-1.2529,-1.2565,-1.263,-1.2659,-1.2701,-1.2746,-1.2787,-1.2821,-1.2867,-1.2904,-1.2939,-1.2972,-1.3026,-1.3067,-1.31,-1.3148,-1.3161,-1.3181,-1.3189,-1.3178,-1.3175,-1.3196,-1.3195,-1.3207,-1.3207,-1.3207,-1.3207,0,-1.2521,-1.2565,-1.2619,-1.2684,-1.2701,-1.273,-1.2786,-1.2816,-1.2851,-1.2897,-1.2911,-1.2967,-1.3017,-1.3063,-1.313,-1.3152,-1.3201,-1.3211,-1.3183,-1.3187,-1.32,-1.3198,-1.3234,-1.3241,-1.3234,-1.3234,-1.3234,0,-1.2529,-1.2558,-1.2626,-1.2653,-1.2684,-1.2727,-1.2759,-1.2805,-1.2836,-1.2898,-1.292,-1.2973,-1.3017,-1.3095,-1.3142,-1.3194,-1.3206,-1.3215,-1.3214,-1.3202,-1.3207,-1.3204,-1.3208,-1.3214,-1.3214,-1.3214,-1.3214,0,-1.254,-1.2561,-1.2604,-1.2656,-1.2692,-1.2735,-1.2779,-1.28,-1.2854,-1.2888,-1.2939,-1.2974,-1.3042,-1.3094,-1.315,-1.3184,-1.3208,-1.3214,-1.322,-1.3209,-1.3191,-1.3201,-1.3181,-1.3213,-1.3213,-1.3213,-1.3213,-1.3213,-1.2541,-1.2569,-1.2621,-1.2669,-1.2706,-1.2747,-1.2778,-1.2818,-1.2861,-1.292,-1.2945,-1.2997,-1.3049,-1.3128,-1.3161,-1.3203,-1.3208,-1.3217,-1.322,-1.3221,-1.3219,-1.3184,-1.3214,-1.3214,-1.3214,-1.3214,-1.3214,0,-1.2554,-1.259,-1.2633,-1.2693,-1.2731,-1.275,-1.28,-1.2831,-1.2876,-1.2922,-1.2965,-1.3025,-1.3075,-1.3126,-1.318,-1.3204,-1.3216,-1.3216,-1.3215,-1.3223,-1.3211,-1.32,-1.3205,-1.3205,-1.3205,-1.3205,-1.3205,-1.3205,-1.2565,-1.2613,-1.264,-1.2707,-1.2743,-1.2794,-1.2821,-1.2858,-1.2896,-1.296,-1.3002,-1.3035,-1.3084,-1.3141,-1.3189,-1.3203,-1.3221,-1.3218,-1.3235,-1.3223,-1.3223,-1.3224,-1.3214,-1.3221,-1.3221,-1.3243,-1.3243,-1.3243]},{"header":{"parameterUnit":"m.s-1","parameterCategory":1,"la1":30.2991,"la2":30.254,"lo1":-89.0895,"lo2":-89.0444,"dy":0.0017,"dx":0.0017,"nx":28,"ny":28,"refTime":"2024-06-03T21:00:00:Z","depth":0,"parameterNumber":3,"parameterNumberName":"V-component_of_WINDS"},"data":[0,0,0,0,0,0,0,0,0,0,0,0,0,0,0,0,0,0,0,0,0,0,0,0,0,0,0,0,0,0,0,0,0,0,0,0,0,0,0,0,0,0,0,0,0,0,0,0,0,0,0,0,0,0,0,0,0,0,4.4796,4.4796,0,4.483,4.483,4.4831,4.4808,4.4807,4.4806,4.4805,4.4837,4.4838,4.484,0,0,0,0,0,0,0,0,0,0,0,0,0,4.4707,4.4709,4.4796,4.4796,4.4796,4.483,4.483,4.4831,4.4808,4.4807,4.4805,4.4804,4.4836,4.4838,4.484,0,0,0,0,0,0,0,0,0,0,0,0,0,4.4744,4.471,4.4795,4.4789,4.4789,4.483,4.483,4.4831,4.4808,4.4807,4.4805,4.4804,4.4835,4.4838,4.4841,4.4888,0,0,4.4849,4.485,0,0,0,0,0,0,0,0,4.4742,4.4747,4.479,4.479,4.479,4.4813,4.4811,4.485,4.4809,4.4801,4.4805,4.4803,4.483,4.4833,4.4843,4.489,4.4891,4.4849,4.4851,4.4852,4.4853,0,0,0,0,0,0,0,4.4739,4.4746,4.4809,4.479,4.479,4.4784,4.4787,4.4818,4.4823,4.4801,4.48,4.4804,4.4829,4.484,4.4843,4.4892,4.4849,4.4851,4.4853,4.4854,4.4981,4.4983,0,0,0,0,0,0,4.4738,4.4744,4.4808,4.481,4.4762,4.4787,4.479,4.4807,4.4823,4.4824,4.4806,4.4803,4.4836,4.484,4.4844,4.4902,4.4852,4.4854,4.4856,4.4979,4.4982,4.4983,0,0,0,0,0,0,4.4736,4.4744,4.4807,4.4777,4.4784,4.479,4.4809,4.4809,4.4819,4.4826,4.4827,4.4816,4.4835,4.484,4.4878,4.4903,4.4856,4.4858,4.4977,4.498,4.4982,4.5018,0,0,0,0,0,0,4.4734,4.4743,4.4762,4.4777,4.4786,4.4841,4.481,4.481,4.4824,4.4821,4.4836,4.4837,4.4834,4.4874,4.4881,4.4906,4.486,4.4975,4.4979,4.4982,4.5015,4.5022,4.5028,0,0,0,0,0,4.4731,4.477,4.4763,4.4771,4.481,4.4842,4.4847,4.4844,4.4826,4.4845,4.485,4.4836,4.4899,4.4878,4.4885,4.4912,4.4974,4.4978,4.4981,4.5012,4.502,4.5027,0,0,0,0,0,0,4.4756,4.4772,4.4765,4.481,4.4825,4.4838,4.4862,4.4853,4.4873,4.4869,4.4863,4.4867,4.4907,4.4913,4.4889,4.4959,4.4933,4.4939,4.4954,4.4962,4.4968,4.4966,4.4863,0,0,0,0,0,4.4767,4.4794,4.4805,4.4844,4.4852,4.4856,4.487,4.4867,4.4882,4.4888,4.4895,4.4909,4.4932,4.4947,4.4969,4.5016,4.5019,4.5037,4.5044,4.5049,4.5054,4.508,4.5088,4.4996,4.4996,4.4996,0,0,4.479,4.4802,4.4818,4.485,4.4861,4.4888,4.4861,4.489,4.491,4.4892,4.4928,4.4934,4.495,4.4993,4.5012,4.4999,4.508,4.5054,4.5058,4.506,4.5085,4.5093,4.5101,4.4999,4.4998,4.4998,0,0,4.4846,4.4857,4.4891,4.4904,4.4922,4.4924,4.4933,4.4948,4.4951,4.4988,4.4976,4.4998,4.5038,4.505,4.5061,4.5122,4.5111,4.5129,4.5163,4.5188,4.5195,4.5202,4.5225,4.5233,4.5134,4.5134,4.5134,0,4.4871,4.4912,4.491,4.4941,4.4955,4.4941,4.4975,4.4987,4.5011,4.5021,4.5006,4.5056,4.5066,4.5112,4.5127,4.5136,4.5145,4.5128,4.5195,4.5201,4.5207,4.5229,4.5237,4.5136,4.5136,4.5136,4.5136,0,4.4943,4.4972,4.4997,4.5023,4.5039,4.5072,4.5074,4.5091,4.5086,4.509,4.5128,4.5139,4.5163,4.5174,4.5168,4.5219,4.5211,4.5196,4.5169,4.5218,4.5238,4.5246,4.514,4.5139,4.5138,4.5138,0,0,4.5015,4.504,4.505,4.5061,4.5081,4.5102,4.5134,4.5159,4.5174,4.5191,4.5218,4.5252,4.5239,4.5251,4.5248,4.527,4.5319,4.5252,4.5252,4.5265,4.5376,4.5388,4.5398,4.5312,4.5313,4.5314,4.5375,0,4.5073,4.513,4.5129,4.5182,4.5208,4.5196,4.5223,4.5238,4.5242,4.5265,4.5269,4.5294,4.5274,4.5282,4.5303,4.5309,4.5341,4.5304,4.5336,4.5337,4.5333,4.5408,4.542,4.5477,4.5383,4.5384,4.5385,0,4.5147,4.5169,4.5225,4.5242,4.5253,4.5278,4.5301,4.5323,4.5339,4.534,4.5356,4.5349,4.538,4.5353,4.5397,4.5372,4.5385,4.5389,4.5391,4.5395,4.5365,4.5414,4.5495,4.5504,4.5397,4.5396,4.5396,0,4.5196,4.5238,4.5277,4.5288,4.5308,4.5326,4.5335,4.535,4.5365,4.5385,4.5395,4.5418,4.543,4.5448,4.5447,4.5428,4.5492,4.5465,4.5494,4.5494,4.5509,4.5508,4.5594,4.5516,4.5516,4.5516,4.5515,0,4.526,4.5295,4.53,4.5324,4.5362,4.5361,4.5399,4.5406,4.5419,4.5444,4.5434,4.5457,4.5455,4.5478,4.5477,4.5514,4.5519,4.5522,4.5521,4.5523,4.5523,4.5532,4.5528,4.5518,4.5517,4.5517,4.5516,0,4.5321,4.5325,4.5367,4.5384,4.5389,4.5417,4.543,4.5453,4.5457,4.5488,4.5495,4.5501,4.5528,4.5529,4.556,4.556,4.5605,4.5599,4.56,4.5599,4.5629,4.5627,4.5725,4.5738,4.565,4.5651,4.5652,0,4.5362,4.5389,4.5409,4.5426,4.5436,4.5463,4.5479,4.5478,4.5495,4.5517,4.5537,4.5563,4.5585,4.5628,4.5635,4.5658,4.5654,4.5687,4.5657,4.5659,4.5655,4.5654,4.5657,4.5692,4.5693,4.5694,4.5695,0,4.5436,4.5437,4.5461,4.5487,4.5507,4.5527,4.5545,4.5559,4.556,4.558,4.5608,4.5625,4.5657,4.5683,4.5707,4.5715,4.5705,4.5704,4.5712,4.5715,4.5714,4.5716,4.5616,4.5702,4.5701,4.5701,4.57,4.57,4.5488,4.5512,4.553,4.5558,4.5572,4.559,4.5612,4.562,4.5644,4.5671,4.5669,4.57,4.5716,4.5747,4.5757,4.5781,4.577,4.5782,4.5785,4.5788,4.5792,4.571,4.5785,4.5785,4.5785,4.5785,4.5785,0,4.5562,4.5573,4.5599,4.5626,4.5648,4.5638,4.5658,4.5677,4.5705,4.5721,4.5743,4.5776,4.5802,4.5811,4.5836,4.5854,4.585,4.586,4.5859,4.5862,4.58,4.5791,4.5863,4.5863,4.5863,4.5863,4.5863,4.5863,4.5603,4.5643,4.5647,4.5693,4.5704,4.5736,4.5749,4.5765,4.5778,4.5816,4.5838,4.5844,4.5857,4.5883,4.5907,4.5909,4.5919,4.5931,4.5931,4.5874,4.5866,4.5858,4.585,4.5933,4.5933,4.5991,4.5991,4.5992]}]]